OOV-CUBE (TUBSAT-30)

Last updated on Thu Oct 30 2025 00:03:10 GMT+0000 (Coordinated Universal Time)

1 60240U 24128F 25302.52470904 .00003432 00000+0 27269-3 0 9992 2 60240 61.9955 309.0362 0058754 84.7814 275.9977 15.01200087 71461
UTC large
Height (km)
Speed (km/s)
/
Latitude / Longitude
Inclination (degrees)
Orbital Period (minutes)
Azimuth
Elevation
Range (km)
Doppler Factor

Next 0 passes for location: London (51.5072 / 0.1276)

Sorry there are no passes over London.